User: anonymous   Login
Location: Mentone
(34.5413°N, 85.5351°W)
Time: 15:08:58
(UTC-05:00)
Language:

ERBS - Orbit

View from above orbital plane
View from above orbital plane
View from above satellite
View from above satellite

Ground track
Ground track

The orbit data is extracted from the following two-line orbital elements,

1 15354U 84108B   17265.90286822 +.00002653 +00000-0 +65474-4 0  9993
2 15354 057.0076 077.5103 0006058 312.3809 047.6733 15.44258188813023
Epoch (UTC): 22 September 2017 21:40:07
Eccentricity: 0.0006058
inclination: 57.0076°
perigee height: 429 km
apogee height: 437 km
right ascension of ascending node: 77.5103°
argument of perigee: 312.3809°
revolutions per day: 15.44258188
mean anomaly at epoch: 47.6733°
orbit number at epoch: 81302

The dashed part of the orbit path shows where the satellite is in the earth's shadow,  

DLR